[Iaude] MPEC K09: 2024 JX17 [a=0.76,e=0.51,i=28.8,H=20.3,PHA]
    mpec at cfa.harvard.edu 
    mpec at cfa.harvard.edu
       
    Fri May 17 00:37:38 EDT 2024
    
    
  
M.P.E.C. 2024-K09                                  Issued 2024 May 17, 04:36 UT
     The Minor Planet Electronic Circulars contain information on unusual
         minor planets, routine data on comets and natural satellites,
         and occasional editorial announcements.  They are published
    on behalf of Division F of the International Astronomical Union by the
          Minor Planet Center, Smithsonian Astrophysical Observatory,
                          Cambridge, MA 02138, U.S.A.
			  
             Prepared using the Tamkin Foundation Computer Network
                              MPC at CFA.HARVARD.EDU
            URL https://www.minorplanetcenter.net/    ISSN 1523-6714
                                   2024 JX17                                    
Observations:
     K24J17X*1C2024 05 13.16266310 15 58.511+32 07 59.63         20.30GVEK009G96
     K24J17X 1C2024 05 13.16791810 16 00.368+32 08 00.82         20.18GVEK009G96
     K24J17X 1C2024 05 13.17315810 16 02.226+32 08 01.90         19.83GVEK009G96
     K24J17X 1C2024 05 13.17840210 16 04.076+32 08 03.16         20.10GVEK009G96
     K24J17X KC2024 05 13.24245310 16 26.735+32 08 17.16         19.78GVEK009I52
     K24J17X KC2024 05 13.24477310 16 27.469+32 08 17.30         19.72GVEK009I52
     K24J17X KC2024 05 13.24709010 16 28.326+32 08 17.88         20.25GVEK009I52
     K24J17X KC2024 05 13.24941410 16 29.168+32 08 18.71         20.24GVEK009I52
     K24J17X  C2024 05 13.25881510 16 32.472+32 08 19.18         20.0 GVEK009H01
     K24J17X  C2024 05 13.26213310 16 33.657+32 08 19.87         19.9 GVEK009H01
     K24J17X  C2024 05 13.27397610 16 37.870+32 08 22.09         19.6 GVEK009H01
     K24J17X  C2024 05 13.27973210 16 39.923+32 08 23.24         19.5 GVEK009H01
     K24J17X KC2024 05 13.30078510 16 47.464+32 08 28.90         20.38GVEK009I52
     K24J17X KC2024 05 13.30310810 16 48.281+32 08 29.00         20.27GVEK009I52
     K24J17X KC2024 05 13.30542710 16 49.105+32 08 29.54         20.37GVEK009I52
     K24J17X KC2024 05 13.30775110 16 49.883+32 08 29.87         20.16GVEK009I52
     K24J17X KB2024 05 13.58716 10 18 30.50 +32 09 44.1          19.3 GVEK009P13
     K24J17X KB2024 05 13.59926 10 18 34.56 +32 09 45.1          20.3 GVEK009P13
     K24J17X 1C2024 05 13.84672 10 20 02.22 +32 10 38.3          20.8 VXEK009033
     K24J17X 1C2024 05 13.84736 10 20 02.45 +32 10 38.5          20.8 VXEK009033
     K24J17X 1C2024 05 13.84798 10 20 02.68 +32 10 38.3          20.8 VXEK009033
     K24J17X 1C2024 05 13.84861 10 20 02.86 +32 10 38.6          20.4 VXEK009033
     K24J17X 6C2024 05 13.88876410 20 16.659+32 10 52.77         20.3 GVEK009Z84
     K24J17X 6C2024 05 13.89264210 20 18.000+32 10 53.93         20.2 GVEK009Z84
     K24J17X KB2024 05 13.93842 10 20 33.83 +32 11 06.7          20.8 VqEK009Y66
     K24J17X KB2024 05 13.93956 10 20 34.24 +32 11 06.9          20.1 VqEK009Y66
     K24J17X 1C2024 05 13.98190 10 20 48.74 +32 11 00.3          21.2 VXEK009033
     K24J17X 1C2024 05 13.98259 10 20 49.01 +32 11 00.5          21.1 VXEK009033
     K24J17X 1C2024 05 13.98328 10 20 49.20 +32 11 00.1          21.3 VXEK009033
     K24J17X mC2024 05 14.13827310 21 43.632+32 11 47.18         20.56GVEK009I52
     K24J17X mC2024 05 14.13881310 21 43.808+32 11 47.15         20.52GVEK009I52
     K24J17X mC2024 05 14.14240710 21 45.018+32 11 48.01         20.87GVEK009I52
     K24J17X mC2024 05 14.14294810 21 45.205+32 11 48.05         20.21GVEK009I52
     K24J17X  C2024 05 14.25969310 22 24.212+32 12 03.06         20.1 GVEK009H01
     K24J17X  C2024 05 14.26451710 22 25.838+32 12 03.63         20.1 GVEK009H01
     K24J17X  C2024 05 14.27341510 22 28.833+32 12 04.59         20.0 GVEK009H01
     K24J17X  C2024 05 14.28148410 22 31.553+32 12 05.36         19.9 GVEK009H01
     K24J17X 1C2024 05 14.85643 10 25 45.94 +32 13 34.4          20.6 VXEK009033
     K24J17X 1C2024 05 14.85723 10 25 46.19 +32 13 35.1          21.0 VXEK009033
     K24J17X 1C2024 05 14.85803 10 25 46.46 +32 13 34.7          21.0 VXEK009033
     K24J17X 1C2024 05 14.97315 10 26 24.02 +32 13 44.8          20.6 VXEK009033
     K24J17X 1C2024 05 14.97400 10 26 24.24 +32 13 44.8          20.6 VXEK009033
     K24J17X 1C2024 05 14.97487 10 26 24.53 +32 13 45.4          20.4 VXEK009033
     K24J17X KC2024 05 17.17130110 37 49.642+32 15 58.00         20.67GVEK009I52
     K24J17X KC2024 05 17.17539210 37 50.768+32 15 58.25         20.69GVEK009I52
     K24J17X KC2024 05 17.17747310 37 51.366+32 15 58.39         20.76GVEK009I52
     K24J17X KC2024 05 17.17889910 37 51.784+32 15 58.28         20.66GVEK009I52
Observer details:
033 Karl Schwarzschild Observatory, Tautenburg.  Observers C. Heogner, F.
    Ludwig, M. Hartmann, B. Stecklum.  Measurer B. Stecklum.  1.34-m f/3
    Schmidt + CCD.
G96 Mt. Lemmon Survey.  Observer K. W. Wierzchos.  Measurers T. Beuden, V. F.
    Carvajal, D. Fay, J. B. Fazekas, D. C. Fuls, A. R. Gibbs, A. D. Grauer, H.
    Groeller, J. K. Hogan, R. A. Kowalski, S. M. Larson, G. J. Leonard, D.
    Rankin, R. L. Seaman, F. C. Shelly, K. W. Wierzchos.  1.5-m reflector +
    10K CCD.
H01 Magdalena Ridge Observatory, Socorro.  Observers W. H. Ryan, E. V. Ryan.
    Measurer W. H. Ryan.  2.4-m f/8.9 Ritchey-Chretien + CCD.
I52 Steward Observatory, Mt. Lemmon Station.  Observers T. Beuden, K. W.
    Wierzchos, J. K. Hogan.  Measurers T. Beuden, V. F. Carvajal, D. Fay, J.
    B. Fazekas, D. C. Fuls, A. R. Gibbs, A. D. Grauer, H. Groeller, J. K.
    Hogan, R. A. Kowalski, S. M. Larson, G. J. Leonard, D. Rankin, R. L.
    Seaman, F. C. Shelly, K. W. Wierzchos.  1.0-m prime focus + CCD.
P13 Baihuashan Observatory, Beijing.  Observers Z. Wang, B. Liu.  Measurer Z.
    Wang.  0.28-m f/2.2 reflector + CMO.
Y66 Two-Meter Twin Telescope, TTT2, Teide.  Observer M. R. Alarcon.
    Measurer M. Serra-Ricart.  0.80-m f/4.38 reflector + CMO.
Z84 Calar Alto-Schmidt.  Observers M. Micheli, R. Kresken.  Measurers R.
    Kresken, M. Micheli, F. Ocana, L. Conversi.  0.8-m f/3 Schmidt + CCD.
Orbital elements:
2024 JX17                                           PHA, Earth MOID = 0.0235 AU
Epoch 2024 Mar. 31.0 TT = JDT 2460400.5                 MPC                     
M  58.72594              (2000.0)            P               Q                  
n   1.48822469     Peri.  214.41525     +0.52489327     -0.82453389             
a   0.7597844      Node   205.96874     +0.84823909     +0.52729176             
e   0.5141049      Incl.   28.84625     +0.07055142     -0.20520054             
P   0.66           H   20.39          G   0.15           U   8                  
Residuals in seconds of arc
240513 G96  0.1-  0.2+    240513 P13  1.1+  1.2+    240514 I52  0.1+  0.1+
240513 G96  0.1-  0.1+    240513 P13  0.6-  0.0     240514 H01  0.1+  0.0
240513 G96  0.1+  0.1-    240513 033  0.0   0.2+    240514 H01  0.1+  0.1+
240513 G96  0.1+  0.1-    240513 033  0.2+  0.2+    240514 H01  0.0   0.0
240513 I52  0.5+  0.1-    240513 033  0.4+  0.0     240514 H01  0.1-  0.1-
240513 I52  0.6-  0.4-    240513 033  0.1-  0.1+    240514 033  0.1+  0.1-
240513 I52  0.2-  0.3-    240513 Z84  0.3-  0.3-    240514 033  0.0   0.5+
240513 I52  0.1+  0.0     240513 Z84  0.0   0.2+    240514 033  0.1+  0.0
240513 H01  0.0   0.0     240513 Y66  0.5+  0.3-    240514 033  0.4+  0.3+
240513 H01  0.1+  0.0     240513 Y66  0.9+  0.3-    240514 033  0.4-  0.2+
240513 H01  0.0   0.1-    240513 033  0.3+  0.2+    240514 033  0.3-  0.8+
240513 H01  0.0   0.1-    240513 033  0.7+  0.3+    240517 I52  0.4+  0.5-
240513 I52  0.3+  0.2+    240513 033  0.1+  0.2-    240517 I52  0.1-  0.1-
240513 I52  0.1+  0.1-    240514 I52  0.0   0.0     240517 I52  0.1-  0.2+
240513 I52  0.1+  0.0     240514 I52  0.1-  0.1-    240517 I52  0.1+  0.1+
240513 I52  0.6-  0.1-    240514 I52  0.1+  0.1+
Ephemeris:
2024 JX17                a,e,i = 0.76, 0.51, 29                  q = 0.3692
Date    TT    R. A. (2000) Decl.     Delta      r    Elong.  Phase     V
2024 04 17    05 05 05.0 +03 22 30   0.1785  0.9026    51.1   120.0    21.3
...
2024 05 02    08 41 03.8 +28 24 57   0.2140  1.0066    83.6    84.2    20.0
...
2024 05 10    09 55 03.7 +31 44 30   0.2822  1.0500    90.3    74.1    20.3
...
2024 05 16    10 31 54.5 +32 15 34   0.3401  1.0772    91.9    69.7    20.7
2024 05 17    10 36 59.4 +32 16 01   0.3499  1.0813    92.0    69.2    20.7
2024 05 18    10 41 49.6 +32 15 32   0.3598  1.0853    92.0    68.7    20.8
...
2024 05 24    11 06 41.2 +31 58 15   0.4196  1.1067    91.6    66.2    21.1
...
2024 06 01    11 32 08.9 +31 12 13   0.4984  1.1285    89.8    64.0    21.4
...
2024 06 16    12 07 49.0 +29 13 42   0.6373  1.1493    84.8    61.7    21.9
A. U. Tomatic                (C) Copyright 2024 MPC           M.P.E.C. 2024-K09
    
    
More information about the Iaude
mailing list